Weather History for KHIF - September, 2013

Change the Weather History Date:

Monday, September 23, 2013

  Actual Average Record
Temperature  
Mean Temperature 57 °F -  
Max Temperature 65 °F 69 °F 87 °F (2001)
Min Temperature 49 °F 48 °F 33 °F (2000)
Degree Days  
Heating Degree Days 8    
Growing Degree Days 7 (Base 50)    
Moisture  
Dew Point 35 °F    
Average Humidity 43    
Maximum Humidity 56    
Minimum Humidity 30    
Precipitation  
Precipitation 0.00 in - - ()
Sea Level Pressure  
Sea Level Pressure 29.97 in    
Wind  
Wind Speed 4 mph (East)    
Max Wind Speed 10 mph    
Max Gust Speed -    
Visibility 10 miles    
Events      
Averages and records for this station are not official NWS values.
T = Trace of Precipitation, MM = Missing Value Source: NWS Daily Summary

Daily Weather History Graph

Daily Weather History Graph

Search for Another Location

Airport or City:

Trip Planner

Search our weather history database for the weather conditions in past years. The results will help you decide how hot, cold, wet, or windy it might be!

Date:

Astronomy

Sep. 23, 2013 Rise Set
Actual Time 7:16 AM MDT 7:22 PM MDT
Civil Twilight 6:49 AM MDT 7:50 PM MDT
Nautical Twilight 6:17 AM MDT 8:22 PM MDT
Astronomical Twilight 5:44 AM MDT 8:55 PM MDT
Moon 9:55 PM MDT (9/23) 11:41 AM MDT (9/23)
Length of Visible Light 13h 01m
Length of Day
12h 06m
Waning Gibbous, 81% of the Moon is Illuminated
Sep 23
Waning Gibbous
Sep 26
Last Quarter
Oct 4
New
Oct 11
First Quarter
Oct 18
Full

Hourly Weather History & Observations

Time (MDT) Temp. Dew Point Humidity Pressure Visibility Wind Dir Wind Speed Gust Speed Precip Events Conditions
12:58 AM 54.7 °F 36.1 °F 50% 29.80 in 10.0 mi NNW 4.6 mph - N/A   Clear
1:58 AM 54.3 °F 35.6 °F 49% 29.82 in 10.0 mi NNW 3.5 mph - N/A   Clear
2:58 AM 52.5 °F 35.1 °F 51% 29.85 in 10.0 mi South 1.2 mph - N/A   Clear
3:53 AM 51.8 °F 35.6 °F 54% 29.98 in 10.0 mi Calm Calm - N/A   Mostly Cloudy
3:58 AM 52.3 °F 34.7 °F 51% 29.86 in 10.0 mi Calm Calm - N/A   Mostly Cloudy
4:48 AM 53.6 °F 33.8 °F 47% 30.00 in 10.0 mi Calm Calm - N/A   Scattered Clouds
4:58 AM 52.7 °F 34.9 °F 51% 29.88 in 10.0 mi Calm Calm - N/A   Scattered Clouds
5:58 AM 52.2 °F 34.2 °F 50% 29.89 in 10.0 mi North 1.2 mph - N/A   Clear
6:58 AM 50.4 °F 34.2 °F 54% 29.92 in 10.0 mi ESE 2.3 mph - N/A   Clear
7:58 AM 49.8 °F 34.7 °F 56% 29.96 in 10.0 mi ESE 3.5 mph - N/A   Clear
8:58 AM 57.0 °F 36.0 °F 45% 29.96 in 10.0 mi East 2.3 mph - N/A   Clear
9:58 AM 58.6 °F 35.4 °F 42% 29.98 in 10.0 mi Variable 3.5 mph - N/A   Clear
10:55 AM 59.9 °F 35.2 °F 40% 29.93 in 10.0 mi Variable 4.6 mph - N/A   Clear
11:50 AM 62.6 °F 35.6 °F 37% 29.94 in 10.0 mi North 9.2 mph - N/A   Mostly Cloudy
11:55 AM 62.6 °F 35.6 °F 37% 29.94 in 10.0 mi North 9.2 mph - N/A   Mostly Cloudy
12:55 PM 61.2 °F 36.9 °F 40% 29.96 in 10.0 mi Variable 1.2 mph - N/A   Mostly Cloudy
1:05 PM 60.8 °F 37.4 °F 42% 29.96 in 10.0 mi Variable 1.2 mph - N/A   Scattered Clouds
1:55 PM 64.2 °F 36.3 °F 36% 29.94 in 10.0 mi WNW 10.4 mph - N/A   Scattered Clouds
2:32 PM 64.4 °F 37.4 °F 37% 30.11 in 10.0 mi Variable 2.3 mph - N/A   Mostly Cloudy
2:42 PM 64.4 °F 37.4 °F 37% 30.11 in 10.0 mi SW 9.2 mph - N/A   Scattered Clouds
2:58 PM 65.1 °F 37.2 °F 36% 30.00 in 10.0 mi Variable 1.2 mph - N/A   Partly Cloudy
3:58 PM 65.5 °F 34.5 °F 32% 30.00 in 10.0 mi WSW 8.1 mph - N/A   Clear
4:58 PM 65.7 °F 33.6 °F 30% 29.99 in 10.0 mi SW 9.2 mph - N/A   Clear
5:58 PM 65.1 °F 33.3 °F 31% 29.99 in 10.0 mi South 8.1 mph - N/A   Clear
6:58 PM 63.7 °F 32.9 °F 32% 30.00 in 10.0 mi South 3.5 mph - N/A   Clear
7:58 PM 58.8 °F 34.7 °F 40% 30.00 in 10.0 mi ESE 2.3 mph - N/A   Clear
8:58 PM 55.2 °F 34.7 °F 46% 30.01 in 10.0 mi SE 4.6 mph - N/A   Clear
9:58 PM 56.1 °F 32.9 °F 41% 30.00 in 10.0 mi ENE 6.9 mph - N/A   Clear
10:58 PM 56.5 °F 32.5 °F 40% 30.10 in 10.0 mi East 3.5 mph - N/A   Clear
11:58 PM 55.0 °F 33.1 °F 43% 30.09 in 10.0 mi NE 4.6 mph - N/A   Clear